tititudorancea.com
Station Historical Data
Daily Summary for July 19, 2018 Units:  Metric    English   Both
« Previous Day
Next Day »
Daily Weekly Monthly Yearly Custom
  High: Low: Average:
Temperature: -17.8 °C 4.2 °C 6.7 °C
Dew Point: -17.8 °C 1.9 °C 3.7 °C
Humidity: Humidity % 69 % 82 %
Wind Speed: 0 km/h 0 km/h 15.9 km/h
Wind Gust: 0 km/h - -
Wind:- - NW
Pressure: 0 hPa 1003.6 hPa -
Precipitation: 4.57 mm    
Historical Graphs
 
 
Ararat weather Find more about Weather in Ararat, AU


 



 


Tabular Data for July 19, 2018
Time Temperature Dew Point Pressure Wind Wind Speed Wind Gust Humidity Rainfall Rate (Hourly)
-17.8 °C -17.8 °C 0 hPa Calm     Humidity % 0 mm
00:04 8.4 °C 3.4 °C 1010 hPa North 16.7 km/h 8.2 km/h 71 % 0 mm
00:09 8.3 °C 3.5 °C 1010 hPa NNW 13 km/h 7.2 km/h 72 % 0 mm
00:14 8.2 °C 3.4 °C 1010 hPa NNW 14.8 km/h 10.9 km/h 72 % 0 mm
00:19 8.2 °C 3.4 °C 1009.7 hPa NNW 14.8 km/h 7.2 km/h 72 % 0 mm
00:24 8.2 °C 3.4 °C 1009.7 hPa NNW 20.4 km/h 12.9 km/h 72 % 0 mm
00:29 8.2 °C 3.4 °C 1009.7 hPa North 14.8 km/h 6.1 km/h 72 % 0 mm
00:34 8.1 °C 3.4 °C 1009.7 hPa NNW 16.7 km/h 7.4 km/h 72 % 0 mm
00:39 8.1 °C 3.3 °C 1009.7 hPa NNW 14.8 km/h 10.8 km/h 72 % 0 mm
00:44 8.1 °C 3.3 °C 1009.7 hPa North 13 km/h 8.9 km/h 72 % 0 mm
00:49 8 °C 3.3 °C 1009.7 hPa NNW 14.8 km/h 9.3 km/h 72 % 0 mm
00:54 8 °C 3.3 °C 1009.7 hPa NNW 20.9 km/h 15 km/h 72 % 0 mm
00:59 8 °C 3.3 °C 1009.7 hPa North 14.5 km/h 9.3 km/h 72 % 0 mm
01:04 8 °C 3.3 °C 1009.4 hPa NNW 20.4 km/h 14 km/h 72 % 0 mm
01:09 8 °C 3.3 °C 1009.4 hPa NNW 20.4 km/h 8.7 km/h 72 % 0 mm
01:14 8 °C 3.3 °C 1009.4 hPa NNW 20.9 km/h 8.7 km/h 72 % 0 mm
01:19 7.9 °C 3.2 °C 1009.4 hPa NNW 20.4 km/h 12.2 km/h 72 % 0 mm
01:24 7.9 °C 3.2 °C 1009.4 hPa NW 25.7 km/h 15.9 km/h 72 % 0 mm
01:29 7.9 °C 3.2 °C 1009 hPa NNW 24.1 km/h 16.4 km/h 72 % 0 mm
01:34 7.9 °C 3.2 °C 1009.4 hPa NNW 27.8 km/h 10.9 km/h 72 % 0 mm
01:39 7.9 °C 3.2 °C 1009 hPa North 18.5 km/h 12.4 km/h 72 % 0 mm
01:44 7.9 °C 3.2 °C 1009 hPa North 22.2 km/h 15.9 km/h 72 % 0 mm
01:49 8 °C 3.1 °C 1009 hPa North 25.9 km/h 13.5 km/h 71 % 0 mm
01:54 8 °C 3.1 °C 1009 hPa NNW 18.5 km/h 15.6 km/h 71 % 0 mm
01:59 8 °C 3.1 °C 1009 hPa North 18.5 km/h 14.5 km/h 71 % 0 mm
02:04 8.1 °C 3.1 °C 1009 hPa NNW 29.6 km/h 15.6 km/h 71 % 0 mm
02:09 8.1 °C 2.9 °C 1009 hPa North 22.2 km/h 13.5 km/h 70 % 0 mm
02:14 8.1 °C 2.9 °C 1009 hPa North 27.4 km/h 12.9 km/h 70 % 0 mm
02:19 8.1 °C 2.9 °C 1009 hPa NNW 22.5 km/h 15.1 km/h 70 % 0 mm
02:24 8 °C 2.8 °C 1009 hPa NNW 14.8 km/h 14.6 km/h 70 % 0 mm
02:29 8.1 °C 2.9 °C 1009 hPa North 19.3 km/h 13.4 km/h 70 % 0 mm
02:34 8.2 °C 2.9 °C 1009 hPa NNW 27.8 km/h 13.2 km/h 69 % 0 mm
02:39 8.2 °C 2.8 °C 1008.7 hPa NW 24.1 km/h 16.1 km/h 69 % 0 mm
02:44 8.3 °C 2.9 °C 1008.7 hPa NNW 27.8 km/h 17.9 km/h 69 % 0 mm
02:49 8.2 °C 2.9 °C 1008.7 hPa North 22.2 km/h 18.2 km/h 69 % 0 mm
02:54 8.1 °C 2.7 °C 1008.4 hPa North 37 km/h 21.4 km/h 69 % 0 mm
02:59 7.8 °C 2.7 °C 1008.4 hPa NNW 18.5 km/h 15.3 km/h 70 % 0 mm
03:04 7.7 °C 2.7 °C 1008.4 hPa NNW 22.2 km/h 12.9 km/h 71 % 0 mm
03:09 7.5 °C 2.6 °C 1008.4 hPa NNW 20.4 km/h 11.3 km/h 71 % 0 mm
03:14 7.4 °C 2.7 °C 1008.4 hPa NNW 31.5 km/h 18.7 km/h 72 % 0 mm
03:19 7.3 °C 2.6 °C 1008 hPa NNW 25.9 km/h 15.8 km/h 72 % 0 mm
03:24 7.2 °C 2.4 °C 1008 hPa NNW 18.5 km/h 9.8 km/h 72 % 0 mm
03:29 7.2 °C 2.4 °C 1008 hPa North 25.9 km/h 17.9 km/h 72 % 0 mm
03:34 7.1 °C 2.4 °C 1007.7 hPa NNW 25.9 km/h 21.4 km/h 72 % 0 mm
03:39 7.1 °C 2.4 °C 1007.7 hPa North 27.8 km/h 16.4 km/h 72 % 0 mm
03:44 7.1 °C 2.6 °C 1007.7 hPa North 29.6 km/h 14.2 km/h 73 % 0 mm
03:49 7 °C 2.5 °C 1007.7 hPa NNW 22.2 km/h 12.9 km/h 73 % 0 mm
03:54 6.9 °C 2.4 °C 1007.7 hPa NNW 18.5 km/h 11.6 km/h 73 % 0 mm
03:59 6.8 °C 2.4 °C 1007.7 hPa NNW 18.5 km/h 14.5 km/h 74 % 0 mm
04:04 6.7 °C 2.3 °C 1007.7 hPa NNW 22.2 km/h 15 km/h 74 % 0 mm
04:09 6.5 °C 2.2 °C 1007.7 hPa NNW 18.5 km/h 13.2 km/h 74 % 0 mm
04:14 6.4 °C 2.3 °C 1007.7 hPa North 22.2 km/h 13.8 km/h 75 % 0 mm
04:19 6.3 °C 2.2 °C 1007.7 hPa NNW 16.7 km/h 13.4 km/h 75 % 0 mm
04:24 6.2 °C 2.1 °C 1007.7 hPa North 20.4 km/h 15.3 km/h 75 % 0 mm
04:29 6.2 °C 2.3 °C 1007.3 hPa NNW 27.8 km/h 15 km/h 76 % 0 mm
04:34 6.1 °C 2.2 °C 1007.3 hPa North 18.5 km/h 12.4 km/h 76 % 0 mm
04:39 6.1 °C 2.2 °C 1007.3 hPa North 24.1 km/h 15.6 km/h 76 % 0 mm
04:44 6 °C 2.1 °C 1007.3 hPa North 18.5 km/h 13 km/h 76 % 0 mm
04:49 5.9 °C 2.1 °C 1007.3 hPa North 24.1 km/h 14 km/h 76 % 0 mm
04:54 5.9 °C 2.1 °C 1007.3 hPa North 20.4 km/h 11.6 km/h 76 % 0 mm
04:59 5.9 °C 2.2 °C 1007.3 hPa NNW 25.9 km/h 18.7 km/h 77 % 0 mm
05:04 5.9 °C 2.1 °C 1007.3 hPa NNW 27.8 km/h 16.1 km/h 76 % 0 mm
05:09 5.9 °C 2.1 °C 1007.3 hPa NNW 25.9 km/h 14.6 km/h 76 % 0 mm
05:14 5.9 °C 2 °C 1007.3 hPa NNW 18.5 km/h 14.2 km/h 76 % 0 mm
05:19 5.8 °C 2.1 °C 1007.3 hPa NE 20.9 km/h 13.7 km/h 77 % 0 mm
05:24 5.8 °C 2.1 °C 1007 hPa NNE 24.1 km/h 17.9 km/h 77 % 0 mm
05:29 5.8 °C 2.1 °C 1007.3 hPa NNW 18.5 km/h 13 km/h 77 % 0 mm
05:34 5.8 °C 2.1 °C 1007 hPa NNW 25.9 km/h 15 km/h 77 % 0 mm
05:39 5.8 °C 2.1 °C 1007 hPa North 22.2 km/h 14.2 km/h 77 % 0 mm
05:44 5.8 °C 2.1 °C 1007 hPa North 22.2 km/h 11.4 km/h 77 % 0 mm
05:49 5.7 °C 2 °C 1007 hPa North 19.3 km/h 12.7 km/h 77 % 0 mm
05:54 5.7 °C 2 °C 1007 hPa North 22.2 km/h 12.1 km/h 77 % 0 mm
05:59 5.7 °C 1.9 °C 1007 hPa North 16.7 km/h 15.9 km/h 77 % 0 mm
06:04 5.7 °C 2 °C 1007 hPa North 25.9 km/h 14 km/h 77 % 0 mm
06:09 5.7 °C 2 °C 1007 hPa NNW 20.4 km/h 13.4 km/h 77 % 0 mm
06:14 5.7 °C 2 °C 1007 hPa North 24.1 km/h 17.1 km/h 77 % 0 mm
06:19 5.7 °C 2 °C 1007 hPa North 22.2 km/h 11.3 km/h 77 % 0 mm
06:24 5.7 °C 2 °C 1007 hPa North 20.4 km/h 12.1 km/h 77 % 0 mm
06:29 5.7 °C 1.9 °C 1007 hPa North 22.2 km/h 11.1 km/h 77 % 0 mm
06:34 5.7 °C 1.9 °C 1007 hPa North 18.5 km/h 12.9 km/h 77 % 0 mm
06:39 5.7 °C 1.9 °C 1007 hPa North 22.2 km/h 13 km/h 77 % 0 mm
06:44 5.7 °C 1.9 °C 1007 hPa NNW 20.4 km/h 13.2 km/h 77 % 0 mm
06:49 5.7 °C 2.1 °C 1007 hPa North 16.7 km/h 11.1 km/h 78 % 0 mm
06:54 5.6 °C 2.1 °C 1007 hPa North 18.5 km/h 13.7 km/h 78 % 0 mm
06:59 5.6 °C 2.1 °C 1007 hPa North 20.4 km/h 16.4 km/h 78 % 0 mm
07:04 5.6 °C 2.1 °C 1007 hPa North 18.5 km/h 14.5 km/h 78 % 0 mm
07:09 5.7 °C 2.1 °C 1006.7 hPa North 22.2 km/h 10.6 km/h 78 % 0 mm
07:14 5.7 °C 2.1 °C 1007 hPa North 16.7 km/h 13.7 km/h 78 % 0 mm
07:19 5.7 °C 2.1 °C 1007 hPa NNW 18.5 km/h 11.1 km/h 78 % 0 mm
07:24 5.7 °C 2.1 °C 1006.7 hPa NW 18.5 km/h 12.1 km/h 78 % 0 mm
07:29 5.7 °C 2.1 °C 1007 hPa NNW 14.8 km/h 9 km/h 78 % 0 mm
07:34 5.6 °C 2.1 °C 1007 hPa North 19.3 km/h 12.4 km/h 78 % 0 mm
07:39 5.6 °C 2.1 °C 1006.7 hPa North 16.7 km/h 8.4 km/h 78 % 0 mm
07:44 5.6 °C 2.1 °C 1006.7 hPa NNW 20.4 km/h 12.6 km/h 78 % 0 mm
07:49 5.6 °C 2 °C 1007 hPa NNW 16.7 km/h 8.4 km/h 78 % 0 mm
07:54 5.6 °C 2.1 °C 1007 hPa NNW 18.5 km/h 10.5 km/h 78 % 0 mm
07:59 5.6 °C 2.1 °C 1006.7 hPa North 20.4 km/h 13 km/h 78 % 0 mm
08:04 5.6 °C 2.1 °C 1006.7 hPa North 24.1 km/h 12.4 km/h 78 % 0 mm
08:09 5.6 °C 2 °C 1006.7 hPa NNW 16.7 km/h 9.7 km/h 78 % 0 mm
08:14 5.6 °C 2.1 °C 1007 hPa NNW 18.5 km/h 8.7 km/h 78 % 0 mm
08:19 5.6 °C 2.1 °C 1007 hPa NNW 25.9 km/h 13.2 km/h 78 % 0 mm
08:24 5.7 °C 2.1 °C 1007 hPa North 27.8 km/h 11.9 km/h 78 % 0 mm
08:29 5.7 °C 2.1 °C 1007 hPa NNW 20.4 km/h 10.8 km/h 78 % 0 mm
08:34 5.7 °C 2.1 °C 1007 hPa NNW 20.4 km/h 9 km/h 78 % 0 mm
08:39 5.7 °C 2.2 °C 1007 hPa North 18.5 km/h 13.5 km/h 78 % 0 mm
08:44 5.7 °C 2.2 °C 1007 hPa North 18.5 km/h 18.5 km/h 78 % 0 mm
08:49 5.8 °C 2.2 °C 1007 hPa NNW 20.4 km/h 8.4 km/h 78 % 0 mm
08:54 5.8 °C 2.2 °C 1007 hPa North 18.5 km/h 12.1 km/h 78 % 0 mm
08:59 5.8 °C 2.3 °C 1007 hPa North 20.9 km/h 12.1 km/h 78 % 0 mm
09:04 5.8 °C 2.3 °C 1007 hPa NNW 27.4 km/h 14.3 km/h 78 % 0 mm
09:09 5.8 °C 2.3 °C 1007 hPa North 16.7 km/h 12.2 km/h 78 % 0 mm
09:14 5.8 °C 2.3 °C 1006.7 hPa North 22.2 km/h 12.1 km/h 78 % 0 mm
09:19 5.9 °C 2.3 °C 1007 hPa North 22.2 km/h 13.4 km/h 78 % 0 mm
09:24 5.9 °C 2.4 °C 1007 hPa NNW 20.4 km/h 18.5 km/h 78 % 0 mm
09:29 6 °C 2.4 °C 1007 hPa North 18.5 km/h 11.1 km/h 78 % 0 mm
09:34 6.1 °C 2.5 °C 1007 hPa North 24.1 km/h 15 km/h 78 % 0 mm
09:39 6.2 °C 2.6 °C 1007 hPa North 18.5 km/h 13.5 km/h 78 % 0 mm
09:44 6.4 °C 2.8 °C 1007 hPa NNW 16.7 km/h 11.3 km/h 78 % 0 mm
09:49 6.7 °C 2.9 °C 1007 hPa NNW 20.9 km/h 14.5 km/h 77 % 0 mm
09:54 6.7 °C 2.8 °C 1007 hPa North 18.5 km/h 12.4 km/h 76 % 0 mm
09:59 6.7 °C 2.9 °C 1007.3 hPa NNW 14.8 km/h 14 km/h 77 % 0 mm
10:04 6.8 °C 3 °C 1007 hPa NNW 18.5 km/h 10.9 km/h 77 % 0 mm
10:09 6.9 °C 3.2 °C 1007.3 hPa NNW 13 km/h 7.7 km/h 77 % 0 mm
10:14 7.1 °C 3.3 °C 1007.3 hPa NNW 18.5 km/h 11.7 km/h 77 % 0 mm
10:19 7.3 °C 3.6 °C 1007.3 hPa North 14.8 km/h 14 km/h 77 % 0 mm
10:24 7.4 °C 3.8 °C 1007.3 hPa North 14.5 km/h 9 km/h 78 % 0 mm
10:29 7.6 °C 4.4 °C 1007.3 hPa NNW 16.7 km/h 8.7 km/h 80 % 0 mm
10:34 7.7 °C 4.5 °C 1007.3 hPa NNW 14.8 km/h 10.5 km/h 80 % 0 mm
10:39 7.8 °C 4.6 °C 1007.3 hPa NNW 18.5 km/h 10.3 km/h 80 % 0 mm
10:44 7.8 °C 4.6 °C 1007.3 hPa NNW 18.5 km/h 11.3 km/h 80 % 0 mm
10:49 7.8 °C 4.6 °C 1007.3 hPa North 18.5 km/h 10.1 km/h 80 % 0 mm
10:54 7.8 °C 4.6 °C 1007.3 hPa NW 16.7 km/h 14.3 km/h 80 % 0 mm
10:59 7.8 °C 4.6 °C 1007.3 hPa North 14.8 km/h 11.4 km/h 80 % 0 mm
11:04 7.9 °C 4.7 °C 1007 hPa North 14.8 km/h 12.2 km/h 80 % 0 mm
11:09 7.9 °C 4.7 °C 1007 hPa North 19.3 km/h 12.9 km/h 80 % 0 mm
11:14 8.1 °C 4.8 °C 1007 hPa NNW 18.5 km/h 14.5 km/h 80 % 0 mm
11:19 8.2 °C 4.7 °C 1007 hPa North 20.4 km/h 11.1 km/h 79 % 0 mm
11:24 8.3 °C 5.1 °C 1007 hPa North 20.9 km/h 11.1 km/h 80 % 0 mm
11:29 8.5 °C 5.1 °C 1007.3 hPa NW 16.7 km/h 12.4 km/h 79 % 0 mm
11:34 8.6 °C 5.2 °C 1007 hPa NW 16.7 km/h 10.5 km/h 79 % 0 mm
11:39 8.6 °C 5.3 °C 1007 hPa North 13 km/h 6.8 km/h 80 % 0 mm
11:44 8.5 °C 5.4 °C 1007 hPa NW 13 km/h 10.6 km/h 81 % 0 mm
11:49 8.5 °C 5.4 °C 1007 hPa NNW 14.8 km/h 10.5 km/h 81 % 0 mm
11:54 8.7 °C 5.6 °C 1007 hPa WNW 18.5 km/h 13.7 km/h 81 % 0 mm
11:59 8.8 °C 5.7 °C 1007 hPa NW 16.1 km/h 9.2 km/h 81 % 0 mm
12:04 8.9 °C 5.8 °C 1007 hPa NW 18.5 km/h 10.3 km/h 81 % 0 mm
12:09 9 °C 5.9 °C 1006.7 hPa NW 14.5 km/h 11.3 km/h 81 % 0 mm
12:14 9.2 °C 6.1 °C 1006.7 hPa NW 14.8 km/h 8.7 km/h 81 % 0 mm
12:19 9.2 °C 5.9 °C 1006.7 hPa NW 16.7 km/h 14.5 km/h 80 % 0 mm
12:24 9.2 °C 5.9 °C 1006.3 hPa NW 14.8 km/h 7.7 km/h 80 % 0 mm
12:29 9.2 °C 5.9 °C 1006.3 hPa North 22.2 km/h 11.4 km/h 80 % 0 mm
12:34 9.2 °C 6.1 °C 1006.3 hPa NW 13 km/h 9.2 km/h 81 % 0 mm
12:39 9.2 °C 5.9 °C 1006 hPa NW 18.5 km/h 13.5 km/h 80 % 0 mm
12:44 9.2 °C 6.1 °C 1006 hPa NW 13 km/h 8 km/h 81 % 0 mm
12:49 9.2 °C 5.9 °C 1006 hPa NW 16.7 km/h 12.2 km/h 80 % 0 mm
12:54 9.2 °C 5.9 °C 1006 hPa NW 18.5 km/h 10.3 km/h 80 % 0 mm
12:59 9.2 °C 5.9 °C 1006 hPa NW 18.5 km/h 12.4 km/h 80 % 0 mm
13:04 9.2 °C 5.9 °C 1005.6 hPa NW 16.7 km/h 11.6 km/h 80 % 0 mm
13:09 9.2 °C 5.9 °C 1005.6 hPa NW 14.8 km/h 10.5 km/h 80 % 0 mm
13:14 9.2 °C 5.9 °C 1005.6 hPa NNW 14.8 km/h 11.7 km/h 80 % 0 mm
13:19 9.2 °C 5.9 °C 1005.6 hPa NNW 12.9 km/h 9.5 km/h 80 % 0 mm
13:24 9.3 °C 6 °C 1005.6 hPa North 12.9 km/h 8.5 km/h 80 % 0 mm
13:29 9.4 °C 6.1 °C 1005.3 hPa NW 14.8 km/h 11.9 km/h 80 % 0 mm
13:34 9.3 °C 6.1 °C 1005.3 hPa NW 14.8 km/h 9.2 km/h 80 % 0 mm
13:39 9.3 °C 6.2 °C 1005 hPa North 13 km/h 6.4 km/h 81 % 0 mm
13:44 9.4 °C 6.3 °C 1005.3 hPa NW 7.4 km/h 4.3 km/h 81 % 0 mm
13:49 9.4 °C 6.2 °C 1005.3 hPa NNW 12.9 km/h 8.5 km/h 80 % 0 mm
13:54 9.4 °C 6.1 °C 1005 hPa NW 13 km/h 8.5 km/h 80 % 0 mm
13:59 9.4 °C 5.9 °C 1005 hPa NNW 12.9 km/h 9 km/h 79 % 0 mm
14:04 9.4 °C 5.7 °C 1005 hPa North 13 km/h 5.3 km/h 78 % 0 mm
14:09 9.4 °C 5.6 °C 1005 hPa NW 16.7 km/h 12.7 km/h 77 % 0 mm
14:14 9.4 °C 5.4 °C 1005 hPa NW 13 km/h 8.4 km/h 76 % 0 mm
14:19 9.5 °C 5.5 °C 1005 hPa North 13 km/h 5.1 km/h 76 % 0 mm
14:24 9.4 °C 5.2 °C 1005 hPa NW 22.2 km/h 14 km/h 75 % 0 mm
14:29 9.3 °C 5.3 °C 1005 hPa NW 18.5 km/h 11.6 km/h 76 % 0 mm
14:34 9.3 °C 5.3 °C 1005.3 hPa North 20.9 km/h 15.8 km/h 76 % 0 mm
14:39 9.1 °C 5.5 °C 1005 hPa WNW 20.4 km/h 10.1 km/h 78 % 0 mm
14:44 8.9 °C 6.2 °C 1005 hPa North 13 km/h 5.6 km/h 83 % 0 mm
14:49 8.8 °C 5.5 °C 1005 hPa North 9.3 km/h 7.2 km/h 80 % 0.25 mm
14:54 8.7 °C 5.7 °C 1004.6 hPa NW 11.1 km/h 9 km/h 81 % 0.25 mm
14:59 8.7 °C 5.8 °C 1004.6 hPa NW 5.6 km/h 2.7 km/h 82 % 0.25 mm
15:04 8.8 °C 6.1 °C 1005 hPa NW 5.6 km/h 2.9 km/h 83 % 0.25 mm
15:09 8.7 °C 6.2 °C 1005 hPa North 9.7 km/h 7.9 km/h 84 % 0.25 mm
15:14 8.6 °C 6.2 °C 1005 hPa NW 14.5 km/h 10.8 km/h 85 % 0.25 mm
15:19 8.5 °C 6.3 °C 1004.6 hPa North 13 km/h 4.5 km/h 86 % 0.25 mm
15:24 8.5 °C 6.3 °C 1005 hPa North 8 km/h 5.3 km/h 86 % 0.51 mm
15:29 8.4 °C 6.3 °C 1005 hPa North 9.7 km/h 7.6 km/h 87 % 0.51 mm
15:34 8.3 °C 6.2 °C 1005 hPa NW 9.7 km/h 8.5 km/h 87 % 0.51 mm
15:39 8.3 °C 6.4 °C 1005 hPa NW 9.3 km/h 6.6 km/h 88 % 0.51 mm
15:44 8.2 °C 6.3 °C 1005 hPa NW 14.8 km/h 10.6 km/h 88 % 0.51 mm
15:49 8.2 °C 6.3 °C 1005 hPa North 16.7 km/h 13.7 km/h 88 % 0.25 mm
15:54 8.1 °C 6.2 °C 1005 hPa WNW 16.7 km/h 11.6 km/h 88 % 0.51 mm
15:59 7.8 °C 5.9 °C 1004.6 hPa North 18.5 km/h 16.3 km/h 88 % 0.51 mm
16:04 7.8 °C 5.9 °C 1004.6 hPa WNW 19.3 km/h 13.2 km/h 88 % 0.51 mm
16:09 7.7 °C 5.8 °C 1005 hPa WNW 22.2 km/h 20.4 km/h 88 % 0.51 mm
16:14 7.6 °C 5.7 °C 1005 hPa WNW 17.7 km/h 9.8 km/h 88 % 0.51 mm
16:19 7.4 °C 5.6 °C 1005.3 hPa WNW 24.1 km/h 16.7 km/h 88 % 0.51 mm
16:24 7.4 °C 5.6 °C 1005.3 hPa WNW 18.5 km/h 14.5 km/h 88 % 0.51 mm
16:29 7.2 °C 5.6 °C 1005.3 hPa West 14.8 km/h 11.3 km/h 89 % 1.02 mm
16:34 7.1 °C 5.4 °C 1005.6 hPa WNW 14.5 km/h 11.7 km/h 89 % 1.02 mm
16:39 7 °C 5.4 °C 1005.3 hPa West 9.3 km/h 7.4 km/h 90 % 1.52 mm
16:44 6.9 °C 5.4 °C 1005.3 hPa North 13 km/h 6.6 km/h 90 % 1.52 mm
16:49 6.8 °C 5.3 °C 1005.3 hPa West 13 km/h 6 km/h 90 % 1.78 mm
16:54 6.8 °C 5.3 °C 1005.3 hPa West 6.4 km/h 5.3 km/h 90 % 1.78 mm
16:59 6.7 °C 5.2 °C 1005.3 hPa West 17.7 km/h 10.3 km/h 90 % 1.78 mm
17:04 6.4 °C 4.9 °C 1005.6 hPa West 17.7 km/h 12.6 km/h 90 % 1.78 mm
17:09 6.4 °C 4.9 °C 1005.6 hPa WNW 18.5 km/h 14.2 km/h 90 % 2.29 mm
17:14 6.3 °C 4.7 °C 1005.6 hPa WNW 7.4 km/h 6 km/h 89 % 2.29 mm
17:19 6.3 °C 4.6 °C 1006 hPa North 11.1 km/h 8.5 km/h 89 % 2.54 mm
17:24 6.3 °C 4.6 °C 1006.3 hPa NW 14.8 km/h 10.1 km/h 89 % 2.29 mm
17:29 6.2 °C 4.5 °C 1006.3 hPa North 18.5 km/h 12.4 km/h 89 % 2.29 mm
17:34 6.1 °C 4.4 °C 1006.3 hPa North 16.7 km/h 11.7 km/h 89 % 2.29 mm
17:39 6 °C 4.2 °C 1006.3 hPa WNW 27.8 km/h 18.5 km/h 88 % 2.03 mm
17:44 6 °C 4.2 °C 1006 hPa North 14.8 km/h 9.5 km/h 88 % 2.29 mm
17:49 5.9 °C 4.1 °C 1006 hPa WNW 13 km/h 10.5 km/h 88 % 2.03 mm
17:54 5.9 °C 4.1 °C 1006.3 hPa WNW 18.5 km/h 13.7 km/h 88 % 2.03 mm
17:59 5.9 °C 4.1 °C 1006.3 hPa WNW 20.4 km/h 10.3 km/h 88 % 1.78 mm
18:04 6 °C 4.2 °C 1006.7 hPa NW 9.3 km/h 10.6 km/h 88 % 2.03 mm
18:09 5.9 °C 4.1 °C 1006.3 hPa NNW 11.3 km/h 8.2 km/h 88 % 1.52 mm
18:14 5.9 °C 4.1 °C 1005.6 hPa North 13 km/h 7.7 km/h 88 % 1.52 mm
18:19 5.8 °C 4.2 °C 1005.3 hPa North 9.3 km/h 5 km/h 89 % 1.27 mm
18:24 5.7 °C 4.1 °C 1005 hPa NNE 9.3 km/h 5 km/h 89 % 1.27 mm
18:29 5.7 °C 4.2 °C 1005 hPa NNE 9.3 km/h 4.5 km/h 90 % 1.02 mm
18:34 5.6 °C 4.1 °C 1004.6 hPa NNE 11.1 km/h 9.2 km/h 90 % 0.76 mm
18:39 5.6 °C 4.2 °C 1003.9 hPa NNE 9.3 km/h 6.4 km/h 91 % 0.76 mm
18:44 5.5 °C 4.2 °C 1003.6 hPa NNE 11.1 km/h 5.8 km/h 91 % 0.51 mm
18:49 5.4 °C 4.1 °C 1004.3 hPa NNE 8 km/h 4.7 km/h 91 % 0.51 mm
18:54 5.4 °C 4.1 °C 1005 hPa NNE 7.4 km/h 6.3 km/h 91 % 0.25 mm
18:59 5.3 °C 4 °C 1005.3 hPa NNE 11.1 km/h 5.8 km/h 91 % 0.25 mm
19:04 5.3 °C 4.1 °C 1005.6 hPa NNE 5.6 km/h 5.8 km/h 92 % 0 mm
19:09 5.3 °C 4.1 °C 1005.6 hPa NNE 7.4 km/h 6.4 km/h 92 % 0 mm
19:14 5.3 °C 4.1 °C 1005.6 hPa NNE 7.4 km/h 6.6 km/h 92 % 0 mm
19:19 5.2 °C 4.1 °C 1005.3 hPa NNE 5.6 km/h 3.7 km/h 92 % 0 mm
19:24 5.2 °C 4.1 °C 1005.6 hPa NNE 5.6 km/h 4.3 km/h 92 % 0 mm
19:29 5.2 °C 4 °C 1005.6 hPa NNE 6.4 km/h 2.6 km/h 92 % 0 mm
19:34 5.1 °C 3.9 °C 1005.6 hPa NNE 7.4 km/h 2.4 km/h 92 % 0 mm
19:39 5.1 °C 3.9 °C 1005.6 hPa NNE 7.4 km/h 6 km/h 92 % 0 mm
19:44 5.1 °C 3.9 °C 1005.6 hPa NNE 7.4 km/h 3.9 km/h 92 % 0 mm
19:49 5.1 °C 3.9 °C 1005.6 hPa NNE 13 km/h 5.5 km/h 92 % 0 mm
19:54 5 °C 3.8 °C 1005.6 hPa NNE 11.1 km/h 5.6 km/h 92 % 0 mm
19:59 5 °C 3.9 °C 1005.6 hPa NNE 8 km/h 5.1 km/h 93 % 0 mm
20:04 4.9 °C 3.9 °C 1006 hPa NNE 7.4 km/h 3.1 km/h 93 % 0 mm
20:09 4.9 °C 3.9 °C 1006 hPa NNW 16.7 km/h 7.6 km/h 93 % 0 mm
20:14 5 °C 3.9 °C 1006 hPa North 14.8 km/h 9.8 km/h 93 % 0 mm
20:19 4.9 °C 3.9 °C 1006 hPa NNW 13 km/h 7.4 km/h 93 % 0 mm
20:24 4.9 °C 4.7 °C 1006 hPa NNW 11.1 km/h 6.3 km/h 98 % 0 mm
20:29 4.9 °C 3.9 °C 1006.3 hPa North 9.7 km/h 6.4 km/h 93 % 0 mm
20:34 4.9 °C 3.8 °C 1006.3 hPa NNW 9.3 km/h 7.2 km/h 93 % 0 mm
20:39 4.9 °C 3.8 °C 1006.3 hPa North 13 km/h 10.1 km/h 93 % 0 mm
20:44 4.9 °C 3.8 °C 1006.7 hPa North 11.1 km/h 8 km/h 93 % 0 mm
20:49 4.8 °C 3.8 °C 1006.7 hPa North 12.9 km/h 5.8 km/h 93 % 0 mm
20:54 4.8 °C 3.8 °C 1006.7 hPa North 11.1 km/h 5.5 km/h 93 % 0 mm
20:59 4.8 °C 3.8 °C 1006.3 hPa North 9.3 km/h 8.2 km/h 93 % 0 mm
21:04 4.8 °C 3.8 °C 1006.3 hPa North 11.1 km/h 6.4 km/h 93 % 0 mm
21:09 4.9 °C 3.8 °C 1006.3 hPa North 13 km/h 4.3 km/h 93 % 0 mm
21:14 4.8 °C 3.8 °C 1006.3 hPa North 9.3 km/h 5.6 km/h 93 % 0 mm
21:19 4.8 °C 3.8 °C 1006 hPa North 11.1 km/h 6 km/h 93 % 0 mm
21:24 4.8 °C 3.8 °C 1006 hPa North 9.3 km/h 5.6 km/h 93 % 0 mm
21:29 4.8 °C 3.7 °C 1006 hPa North 6.4 km/h 3.5 km/h 93 % 0 mm
21:34 4.8 °C 3.7 °C 1006 hPa North 7.4 km/h 3.4 km/h 93 % 0 mm
21:39 4.7 °C 3.7 °C 1005.6 hPa North 7.4 km/h 2.7 km/h 93 % 0 mm
21:44 4.7 °C 3.7 °C 1005.6 hPa North 5.6 km/h 3.7 km/h 93 % 0 mm
21:49 4.7 °C 3.7 °C 1006 hPa North 5.6 km/h 3.7 km/h 93 % 0 mm
21:54 4.7 °C 3.6 °C 1006 hPa North 5.6 km/h 3.5 km/h 93 % 0 mm
21:59 4.7 °C 3.8 °C 1006 hPa North 6.4 km/h 5.3 km/h 94 % 0 mm
22:04 4.7 °C 3.8 °C 1006 hPa North 6.4 km/h 4 km/h 94 % 0 mm
22:09 4.6 °C 3.7 °C 1006 hPa North 6.4 km/h 6.1 km/h 94 % 0 mm
22:14 4.6 °C 3.7 °C 1006 hPa North 7.4 km/h 3.1 km/h 94 % 0 mm
22:19 4.6 °C 3.7 °C 1006 hPa North 7.4 km/h 5.3 km/h 94 % 0 mm
22:24 4.6 °C 3.7 °C 1006 hPa North 5.6 km/h 3.1 km/h 94 % 0 mm
22:29 4.6 °C 3.7 °C 1006 hPa North 3.7 km/h 2.7 km/h 94 % 0 mm
22:34 4.5 °C 3.6 °C 1006 hPa North 5.6 km/h 2.9 km/h 94 % 0 mm
22:39 4.5 °C 3.6 °C 1006 hPa North 3.7 km/h 1.8 km/h 94 % 0 mm
22:44 4.5 °C 3.6 °C 1006.3 hPa North 5.6 km/h 3.1 km/h 94 % 0 mm
22:49 4.4 °C 3.6 °C 1006.3 hPa North 5.6 km/h 5.1 km/h 94 % 0 mm
22:54 4.4 °C 3.6 °C 1006.3 hPa North 8 km/h 2.9 km/h 94 % 0 mm
23:09 4.4 °C 3.6 °C 1006.3 hPa North 4.8 km/h 4 km/h 94 % 0 mm
23:14 4.4 °C 3.6 °C 1006.3 hPa North 5.6 km/h 3.5 km/h 94 % 0 mm
23:19 4.4 °C 3.6 °C 1006.3 hPa North 3.7 km/h 0.6 km/h 94 % 0 mm
23:24 4.4 °C 3.6 °C 1006.3 hPa Calm   0.3 km/h 94 % 0 mm
23:29 4.4 °C 3.5 °C 1006.3 hPa North 1.9 km/h 0.8 km/h 94 % 0 mm
23:34 4.4 °C 3.5 °C 1006.3 hPa Calm     94 % 0 mm
23:39 4.3 °C 3.4 °C 1006.3 hPa Calm     94 % 0 mm
23:44 4.3 °C 3.4 °C 1006.3 hPa North 5.6 km/h 1.9 km/h 94 % 0 mm
23:49 4.2 °C 3.3 °C 1006.3 hPa North 6.4 km/h 2.7 km/h 94 % 0 mm
23:54 4.2 °C 3.3 °C 1006.3 hPa North 5.6 km/h 3.4 km/h 94 % 0 mm
23:59 4.2 °C 3.3 °C 1006.3 hPa North 7.4 km/h 4.7 km/h 94 % 0 mm
Ararat Weather
Compliments of Weather Underground - 2.25 mb
Click here to send mail.


ABOUT

Live weather data from Ararat, Victoria, Australia, 3377
Data uploaded from Cumulus every 5 minutes to Weather Underground.
This site then downloads the raw data for formatting and display.
Metric and imperial data can be displayed. Graphs and historical data available.
Includes Sun and Moon times and rain image live from BOM.

Check out Ararat Weather on Facebook, Twitter and Google +

Help support ongoing costs by checking out the ads





Follow @AraratWeather